N1DNE Weather Reports


Display with metric or nautical units.
time (UTC)temp
F
wind
direction
speed
MPH
gust
MPH
rain 1hr
in
rain 24hr
in
rain mn
in
humidity
%
barometer
mb
20260906003727 67 76 0.0 3.0 0.00 0.01 0.01 90 1010.2
20260906003216 67 76 0.0 0.0 0.00 0.01 0.01 90 1010.3
20260906001727 68 76 0.0 0.0 0.00 0.01 0.01 90 1010.1
20260906000727 68 76 0.0 0.0 0.00 0.01 0.01 91 1010.1
20260905235727 68 76 0.0 1.0 0.00 0.01 0.01 90 1009.9
20260905234727 68 76 0.0 3.0 0.00 0.01 0.01 90 1009.8
20260905233727 69 81 0.0 1.0 0.00 0.01 0.01 89 1009.4
20260905232725 69 81 0.0 0.0 0.00 0.01 0.01 89 1009.4
20260905231724 69 81 0.0 1.0 0.00 0.01 0.01 88 1009.3
20260905230724 70 81 0.0 0.0 0.00 0.01 0.01 87 1009.3
20260905225723 70 81 0.0 0.0 0.00 0.01 0.01 86 1009.2
20260905224723 70 81 0.0 0.0 0.00 0.01 0.01 86 1009.3
20260905223724 71 81 0.0 0.0 0.00 0.01 0.01 86 1009.2
20260905222718 71 81 0.0 0.0 0.00 0.01 0.01 86 1009.3
20260905221718 71 81 0.0 0.0 0.00 0.01 0.01 85 1009.2
20260905221159 71 81 0.0 0.0 0.00 0.01 0.01 85 1009.0
20260905215720 71 81 0.0 0.0 0.00 0.01 0.01 85 1009.0
20260905215200 71 81 0.0 0.0 0.00 0.01 0.01 84 1008.9
20260905213719 71 81 0.0 1.0 0.00 0.01 0.01 85 1008.8
20260905212720 71 81 0.0 0.0 0.00 0.01 0.01 86 1008.6
20260905211718 71 81 0.0 0.0 0.00 0.01 0.01 85 1008.6
20260905210719 71 81 0.0 2.0 0.00 0.01 0.01 84 1008.4
20260905205720 71 81 0.0 3.0 0.00 0.01 0.01 87 1008.4
20260905204719 71 81 0.0 2.0 0.00 0.01 0.01 89 1008.4
20260905203714 70 81 0.0 1.0 0.00 0.01 0.01 90 1008.3
20260905202714 70 81 0.0 2.0 0.00 0.01 0.01 91 1008.3
20260905201712 70 81 0.0 0.0 0.00 0.01 0.01 91 1008.3
20260905200714 70 81 0.0 0.0 0.00 0.01 0.01 91 1008.3
20260905195713 70 81 1.0 2.0 0.00 0.01 0.01 89 1008.2
20260905194714 70 81 1.0 2.0 0.00 0.01 0.01 86 1008.3
20260905193712 71 71 0.0 2.0 0.00 0.01 0.01 85 1008.3
20260905192713 72 70 1.0 5.0 0.00 0.01 0.01 80 1008.5
20260905191713 73 29 1.0 8.0 0.00 0.01 0.01 77 1008.5
20260905190708 74 219 0.0 2.0 0.00 0.01 0.01 78 1008.2
20260905185706 74 219 0.0 2.0 0.00 0.01 0.01 78 1008.1
20260905184708 73 219 1.0 4.0 0.00 0.01 0.01 82 1008.2
20260905183706 72 223 0.0 1.0 0.00 0.01 0.01 83 1008.2
20260905182706 71 223 0.0 1.0 0.01 0.01 0.01 86 1008.4
20260905181707 70 223 0.0 2.0 0.01 0.01 0.01 89 1008.5
20260905180706 70 223 0.0 0.0 0.01 0.01 0.01 89 1008.6
20260905180150 70 223 0.0 3.0 0.01 0.01 0.01 87 1008.6
20260905174708 71 223 1.0 3.0 0.01 0.01 0.01 85 1008.7
20260905174135 72 223 1.0 4.0 0.01 0.01 0.01 81 1008.6
20260905172701 74 44 1.0 4.0 0.00 0.00 0.00 75 1008.7
20260905171700 74 49 1.0 4.0 0.00 0.00 0.00 71 1008.5
20260905170701 74 71 1.0 5.0 0.00 0.00 0.00 71 1008.4
20260905165700 74 40 1.0 5.0 0.00 0.00 0.00 70 1008.4
20260905165141 73 89 2.0 6.0 0.00 0.00 0.00 72 1008.5
20260905163701 73 63 2.0 9.0 0.00 0.00 0.00 71 1008.5
20260905162702 73 12 2.0 7.0 0.00 0.00 0.00 72 1008.5
20260905161701 73 28 3.0 7.0 0.00 0.00 0.00 74 1008.4
20260905160657 73 78 2.0 7.0 0.00 0.00 0.00 74 1008.4
20260905155658 73 74 3.0 10.0 0.00 0.00 0.00 73 1008.5
20260905154658 73 72 2.0 7.0 0.00 0.00 0.00 74 1008.5
20260905153659 72 61 2.0 6.0 0.00 0.00 0.00 75 1008.6
20260905152659 72 71 3.0 6.0 0.00 0.00 0.00 74 1008.5
20260905151700 72 36 3.0 5.0 0.00 0.00 0.00 76 1008.7
20260905150658 72 65 3.0 7.0 0.00 0.00 0.00 75 1008.8
20260905145658 72 67 2.0 4.0 0.00 0.00 0.00 77 1008.7
20260905144655 71 46 2.0 5.0 0.00 0.00 0.00 76 1008.6
20260905143656 71 30 2.0 5.0 0.00 0.00 0.00 78 1008.4
20260905142655 71 77 2.0 8.0 0.00 0.00 0.00 78 1008.5
20260905142138 70 57 1.0 4.0 0.00 0.00 0.00 81 1008.5
20260905140656 69 46 1.0 4.0 0.00 0.00 0.00 83 1008.5
20260905135656 69 58 1.0 4.0 0.00 0.00 0.00 84 1008.7
20260905134655 68 49 1.0 5.0 0.00 0.00 0.00 84 1008.8
20260905133655 68 62 1.0 5.0 0.00 0.00 0.00 84 1008.9
20260905132656 67 61 1.0 5.0 0.00 0.00 0.00 85 1008.9
20260905132140 67 77 0.0 4.0 0.00 0.00 0.00 86 1008.8
20260905131047 65 80 0.0 2.0 0.00 0.00 0.00 91 1009.1
20260905130723 66 83 0.0 3.0 0.00 0.00 0.00 89 1008.9
20260905124653 64 77 0.0 2.0 0.00 0.00 0.00 92 1009.1
20260905124135 64 71 0.0 1.0 0.00 0.00 0.00 93 1009.2
20260905122653 63 64 0.0 2.0 0.00 0.00 0.00 94 1009.1
20260905121653 62 101 0.0 1.0 0.00 0.00 0.00 95 1009.1
20260905120654 62 101 0.0 1.0 0.00 0.00 0.00 95 1009.2
20260905120134 61 101 0.0 1.0 0.00 0.00 0.00 95 1008.9
20260905114649 60 101 0.0 1.0 0.00 0.00 0.00 95 1008.8
20260905113647 60 101 0.0 1.0 0.00 0.00 0.00 95 1008.7
20260905112646 60 101 0.0 0.0 0.00 0.00 0.00 95 1008.7
20260905112126 60 101 0.0 1.0 0.00 0.00 0.00 95 1008.6
20260905110646 60 101 0.0 1.0 0.00 0.00 0.00 95 1008.6
20260905105646 59 101 0.0 1.0 0.00 0.00 0.00 94 1008.4
20260905104648 59 101 0.0 0.0 0.00 0.00 0.00 94 1008.3
20260905103640 59 101 0.0 0.0 0.00 0.00 0.00 94 1008.2
20260905102640 60 57 0.0 1.0 0.00 0.00 0.00 94 1008.1
20260905101640 60 57 0.0 1.0 0.00 0.00 0.00 94 1008.0
20260905101113 60 57 0.0 1.0 0.00 0.00 0.00 94 1008.1
20260905095640 60 57 0.0 1.0 0.00 0.00 0.00 94 1008.1
20260905094639 60 57 0.0 0.0 0.00 0.00 0.00 94 1008.0
20260905093639 60 57 0.0 1.0 0.00 0.00 0.00 94 1008.0
20260905092640 60 57 0.0 0.0 0.00 0.00 0.00 93 1007.9
20260905092558 60 57 0.0 1.0 0.00 0.00 0.00 93 1008.0
20260905090638 60 57 0.0 0.0 0.00 0.00 0.00 93 1007.9
20260905085639 60 57 0.0 0.0 0.00 0.00 0.00 93 1007.8
20260905084638 60 57 0.0 0.0 0.00 0.00 0.00 93 1007.8
20260905084122 61 57 0.0 0.0 0.00 0.00 0.00 92 1007.8
20260905082639 61 57 0.0 0.0 0.00 0.00 0.00 92 1007.7
20260905082118 61 57 0.0 0.0 0.00 0.00 0.00 92 1007.8
20260905080639 61 57 0.0 2.0 0.00 0.00 0.00 91 1007.8
20260905075638 62 57 0.0 0.0 0.00 0.00 0.00 91 1007.8
20260905074632 62 57 0.0 0.0 0.00 0.00 0.00 91 1007.9
20260905074117 62 57 0.0 0.0 0.00 0.00 0.00 90 1007.8
20260905072632 63 57 0.0 0.0 0.00 0.00 0.00 89 1007.8
20260905071632 63 57 0.0 0.0 0.00 0.00 0.00 89 1008.0
20260905070631 63 57 0.0 0.0 0.00 0.00 0.00 88 1008.0
20260905065633 64 57 0.0 0.0 0.00 0.00 0.00 88 1008.1
20260905065112 64 57 0.0 0.0 0.00 0.00 0.00 87 1008.1
20260905064116 64 57 0.0 0.0 0.00 0.00 0.00 87 1008.0
20260905062633 65 57 0.0 1.0 0.00 0.00 0.00 87 1008.0
20260905061626 65 57 0.0 1.0 0.00 0.00 0.00 86 1008.2
20260905060624 65 57 0.0 0.0 0.00 0.00 0.00 85 1008.4
20260905055624 66 57 0.0 1.0 0.00 0.00 0.00 84 1008.5
20260905054626 66 57 0.0 1.0 0.00 0.00 0.00 84 1008.5
20260905053625 66 57 0.0 3.0 0.00 0.00 0.00 83 1008.5
20260905052624 66 57 1.0 4.0 0.00 0.00 0.00 83 1008.5
20260905052548 66 65 0.0 3.0 0.00 0.00 0.00 83 1008.6
20260905050624 67 65 0.0 2.0 0.00 0.00 0.00 83 1008.6
20260905050106 67 65 0.0 2.0 0.00 0.00 0.00 83 1008.5
20260905045100 67 65 0.0 2.0 0.00 0.00 0.00 83 1008.7
20260905044101 67 59 0.0 3.0 0.00 0.00 0.00 82 1008.8
20260905042623 67 59 0.0 3.0 0.00 0.00 0.00 83 1008.7
20260905041624 67 59 0.0 2.0 0.00 0.00 0.00 82 1008.7
20260905041056 67 59 0.0 2.0 0.00 0.00 0.00 83 1008.6
20260905035624 67 59 0.0 2.0 0.00 0.00 0.00 84 1008.4
20260905034626 67 59 0.0 1.0 0.00 0.00 0.00 84 1008.4
20260905034058 66 59 0.0 4.0 0.00 0.00 0.00 86 1008.4
20260905033109 66 36 1.0 3.0 0.00 0.00 0.00 87 1008.6
20260905031623 66 102 0.0 1.0 0.00 0.00 0.00 90 1008.7
20260905030622 66 102 0.0 1.0 0.00 0.00 0.00 90 1008.6
20260905025623 66 102 0.0 0.0 0.00 0.00 0.00 90 1008.6
20260905025059 67 102 0.0 0.0 0.00 0.00 0.00 90 1008.5
20260905023622 67 102 0.0 0.0 0.00 0.00 0.00 90 1008.6
20260905023056 67 102 0.0 0.0 0.00 0.00 0.00 90 1008.4
20260905021622 67 102 0.0 0.0 0.00 0.00 0.00 89 1008.6
20260905020623 67 102 0.0 0.0 0.00 0.00 0.00 89 1008.6
20260905015616 68 102 0.0 0.0 0.00 0.00 0.00 89 1008.7
20260905015111 68 102 0.0 0.0 0.00 0.00 0.00 89 1008.8
20260905014056 68 102 0.0 0.0 0.00 0.00 0.00 89 1008.8
20260905012616 68 102 0.0 0.0 0.00 0.00 0.00 88 1008.9
20260905011615 69 102 0.0 0.0 0.00 0.00 0.00 87 1008.9
20260905010617 69 102 0.0 0.0 0.00 0.00 0.00 86 1009.0
20260905005618 69 102 0.0 0.0 0.00 0.00 0.00 85 1009.0